Change the Weather History Date:

Tuesday, January 21, 2014

  Actual Average Record
Temperature  
Mean Temperature 8 °F -  
Max Temperature 12 °F 31 °F 39 °F (1997)
Min Temperature 3 °F 17 °F 3 °F (2005)
Degree Days  
Heating Degree Days 58    
Moisture  
Dew Point -2 °F    
Average Humidity 61    
Maximum Humidity 73    
Minimum Humidity 44    
Precipitation  
Precipitation 0.00 in 0.07 in - ()
Sea Level Pressure  
Sea Level Pressure 30.16 in    
Wind  
Wind Speed 11 mph ()    
Max Wind Speed 18 mph    
Max Gust Speed 21 mph    
Visibility 13.2 miles    
Events Snow    
Averages and records for this station are not official NWS values.
T = Trace of Precipitation, MM = Missing Value Source: Averaged Metar Reports

Daily Weather History Graph

Daily Weather History Graph

Search for Another Location

Airport or City:

Trip Planner

Search our weather history database for the weather conditions in past years. The results will help you decide how hot, cold, wet, or windy it might be!

Date:

Astronomy

Jan. 21, 2014 Rise Set
Actual Time 7:54 AM EST 5:32 PM EST
Civil Twilight 7:24 AM EST 6:02 PM EST
Nautical Twilight 6:49 AM EST 6:36 PM EST
Astronomical Twilight 6:16 AM EST 7:10 PM EST
Moon 11:11 PM EST (1/21) 10:17 AM EST (1/21)
Length of Visible Light 10h 38m
Length of Day
9h 37m
Waning Gibbous, 75% of the Moon is Illuminated
Jan 21
Waning Gibbous
Jan 24
Last Quarter
Jan 30
New
Feb 6
First Quarter
Feb 14
Full

Hourly Weather History & Observations

Time (EST) Temp. Windchill Dew Point Humidity Pressure Visibility Wind Dir Wind Speed Gust Speed Precip Events Conditions
12:00 AM 12.2 °F -1.0 °F 5.0 °F 73% 30.08 in 7.0 mi North 10.4 mph - N/A Snow Light Snow
1:00 AM 12 °F - 5 °F 63% 30.07 in 12 mi NNE 13.8 mph - - Snow Light Snow
1:00 AM 12.2 °F -3.7 °F 5.0 °F 73% 30.07 in 12.0 mi NNE 15.0 mph - N/A Snow Light Snow
2:00 AM 10.4 °F -7.7 °F -0.4 °F 62% 30.06 in 10.0 mi North 18.4 mph - N/A Snow Light Snow
3:00 AM 8.6 °F -7.0 °F -7.6 °F 48% 30.09 in 15.0 mi North 12.7 mph - N/A Snow Light Snow
3:27 AM - - - N/A% - 15.0 mi North 12.7 mph - N/A   Overcast
3:35 AM - - - N/A% - 15.0 mi North 9.2 mph - N/A   Unknown
4:00 AM 8.6 °F -7.0 °F -5.8 °F 52% 30.10 in 15.0 mi North 12.7 mph - N/A Snow Light Snow Showers
5:00 AM 6.8 °F -5.9 °F -4.0 °F 61% 30.10 in 15.0 mi North 8.1 mph - N/A Snow Light Snow Showers
6:00 AM 6.8 °F -10.0 °F -2.2 °F 67% 30.10 in 12.0 mi North 13.8 mph - N/A Snow Light Snow Showers
6:40 AM - - - N/A% - 15.0 mi North 15.0 mph - N/A   Partly Cloudy
7:00 AM 6 °F - -4 °F 50% 30.13 in 15 mi North 12.7 mph - - Snow Light Snow Showers
7:00 AM 6.8 °F -9.3 °F -4.0 °F 61% 30.13 in 15.0 mi North 12.7 mph - N/A Snow Low Drifting Snow
8:00 AM 6.8 °F -10.0 °F -2.2 °F 67% 30.15 in 15.0 mi North 13.8 mph 20.7 mph N/A   Mostly Cloudy
8:14 AM - - - N/A% - 15.0 mi North 15.0 mph - N/A   Unknown
9:00 AM 6.8 °F -8.6 °F -0.4 °F 72% 30.17 in 15.0 mi North 11.5 mph - N/A Snow Light Snow Showers
9:32 AM - - - N/A% - 15.0 mi North 13.8 mph - N/A   Mostly Cloudy
10:00 AM 6.8 °F -10.0 °F -0.4 °F 72% 30.18 in 15.0 mi NNE 13.8 mph - N/A   Partly Cloudy
11:00 AM 8.6 °F -5.5 °F -0.4 °F 67% 30.19 in 15.0 mi North 10.4 mph - N/A   Partly Cloudy
12:00 PM 8.6 °F -6.3 °F -0.4 °F 67% 30.19 in 15.0 mi North 11.5 mph - N/A   Partly Cloudy
12:44 PM - - - N/A% - 7.0 mi North 8.1 mph - N/A   Unknown
1:00 PM 11 °F - 1 °F 50% 30.18 in 6 mi NNE 9.2 mph - - Snow Light Snow Showers
1:00 PM 10.4 °F -2.4 °F 1.4 °F 67% 30.18 in 6.0 mi NNE 9.2 mph - N/A Snow Light Snow Showers
2:00 PM 10.4 °F -3.3 °F 3.2 °F 73% 30.17 in 4.0 mi NNE 10.4 mph - N/A Snow Light Snow Showers
3:00 PM 10.4 °F -4.1 °F -0.4 °F 62% 30.17 in 15.0 mi North 11.5 mph 17.3 mph N/A Snow Light Snow Showers
4:00 PM 10.4 °F -4.8 °F -4.0 °F 52% 30.19 in 12.0 mi North 12.7 mph - N/A Snow Light Snow Showers
5:00 PM 10.4 °F -3.3 °F -4.0 °F 52% 30.19 in 15.0 mi North 10.4 mph - N/A   Mostly Cloudy
6:00 PM 8.6 °F -5.5 °F -4.0 °F 57% 30.21 in 15.0 mi North 10.4 mph - N/A   Partly Cloudy
7:00 PM 8 °F - -4 °F 44% 30.22 in 15 mi North 9.2 mph - -   Partly Cloudy
7:00 PM 8.6 °F -6.3 °F -4.0 °F 57% 30.22 in 15.0 mi North 11.5 mph - N/A   Partly Cloudy
8:00 PM 6.8 °F -6.9 °F -4.0 °F 61% 30.23 in 15.0 mi North 9.2 mph - N/A   Partly Cloudy
9:00 PM 5.0 °F -6.9 °F -5.8 °F 61% 30.23 in 15.0 mi North 6.9 mph - N/A   Partly Cloudy
10:00 PM 3.2 °F -9.1 °F -5.8 °F 66% 30.23 in 15.0 mi North 6.9 mph - N/A   Partly Cloudy
11:00 PM 3.2 °F -6.2 °F -7.6 °F 61% 30.22 in 15.0 mi North 4.6 mph - N/A   Mostly Cloudy